www.pogodaiklimat.ru

Погода и климат >> Архив погоды >> Австралия >> Западная Австралия >> Марбл-бар


ПОГОДА в Марбл-баре

  • Прогноз погоды в Марбл-баре
  • Монитор погоды в Марбл-баре

АРХИВ ПОГОДЫ в Марбл-баре

Время (UTC), дата Ветер
(напр.,м/с)
 
Видим.   Явления Облачность Т
(С)
Тd
(С)
f
(%)
Тe
(С)
Тes
(С)
Комфортность P
(гПа)
Po
(гПа)
Тmin
(С)
Tmax
(С)
R
(мм)
R24
(мм)
S
(см)
13 16.05 штиль 0 н/о н/о +19.6 +7.4 45 +20 +20 1015.6 994.6 +33.5
15 16.05 СЗ 1 н/о н/о +17.9 +6.4 47 +19 +19 1015.4 994.4
16 16.05 штиль 0 н/о н/о +16.5 +6.1 50 +16 +16 1015.2 994.2
18 16.05 ЮЗ 1 н/о н/о +17.3 +4.9 44 +18 +18 1014.5 993.5
19 16.05 ЮЗ 2 н/о н/о +16.3 +5.3 48 +17 +17 1014.2 993.2
21 16.05 Ю 1 н/о н/о +15.1 +5.0 51 +16 +16 1014.2 993.2
22 16.05 Ю 1 н/о н/о +13.4 +5.8 60 +15 +15 1014.5 993.5
00 17.05 Ю 1 н/о н/о +19.8 +3.5 34 +22 +22 комфорт 1015.4 994.4
01 17.05 штиль 0 н/о н/о +24.4 +3.1 25 +24 +24 комфорт 1015.7 994.7 +12.7
03 17.05 ЮВ 1 н/о н/о +30.2 -2.3 12 +27 +27 жарко 1014.6 993.6
04 17.05 ЮЗ 1 н/о н/о +32.3 -4.6 9 +28 +28 жарко 1013.8 992.8
06 17.05 СЗ 3 н/о н/о +33.4 -5.3 8 +29 +29 жарко 1012.3 991.4
07 17.05 ЮЗ 2 н/о н/о +33.4 -5.3 8 +29 +29 жарко 1012.2 991.3
09 17.05 З 2 н/о н/о +31.4 -3.8 10 +28 +28 жарко 1012.0 991.1
10 17.05 ЮЗ 1 н/о н/о +26.0 +0.6 19 +24 +24 комфорт 1012.7 991.8
12 17.05 штиль 0 н/о н/о +20.1 +5.0 37 +20 +20 1013.9 992.9
13 17.05 штиль 0 н/о н/о +19.2 +5.3 40 +20 +20 1014.0 993.0 +34.5
15 17.05 штиль 0 н/о н/о +19.5 +3.2 34 +20 +20 1014.8 993.8
16 17.05 Ю 1 н/о н/о +17.9 +3.0 37 +20 +20 1014.8 993.8
18 17.05 Ю 2 н/о н/о +18.8 -1.6 25 +20 +20 1014.8 993.8
19 17.05 Ю 3 н/о н/о +19.5 -0.5 26 +20 +20 1015.2 994.2
21 17.05 Ю 1 н/о н/о +16.0 +2.1 39 +18 +18 1015.7 994.7
22 17.05 Ю 2 н/о н/о +14.7 +3.2 46 +15 +15 1016.2 995.2
00 18.05 Ю 4 н/о н/о +19.7 +5.7 40 +20 +20 1017.4 996.4
01 18.05 ЮВ 3 н/о н/о +22.0 +6.3 36 +23 +23 комфорт 1017.7 996.7 +13.7
03 18.05 ЮВ 4 н/о н/о +25.9 +5.5 27 +25 +25 комфорт 1017.0 996.0
04 18.05 ЮВ 4 н/о н/о +27.8 +5.4 24 +27 +27 жарко 1015.9 994.9
06 18.05 ЮВ 3 н/о н/о +30.3 +4.1 19 +28 +28 жарко 1014.3 993.3
07 18.05 ЮВ 3 н/о н/о +30.6 +3.6 18 +28 +28 жарко 1014.2 993.2
09 18.05 В 2 н/о н/о +29.2 +3.2 19 +27 +27 жарко 1014.6 993.6
10 18.05 В 1 н/о н/о +25.1 +5.3 28 +25 +25 комфорт 1015.1 994.1
12 18.05 ЮВ 1 н/о н/о +22.0 +5.0 33 +22 +22 комфорт 1016.7 995.7
13 18.05 ЮВ 2 н/о н/о +22.1 +4.2 31 +22 +22 комфорт 1017.2 996.2 +30.9
15 18.05 ЮВ 3 н/о н/о +20.7 +3.4 32 +22 +22 комфорт 1017.4 996.4
16 18.05 ЮВ 4 н/о н/о +20.7 +3.0 31 +21 +21 комфорт 1017.2 996.2
18 18.05 ЮВ 2 н/о н/о +17.9 +3.0 37 +19 +19 1017.5 996.5
19 18.05 штиль 0 н/о н/о +17.1 +3.4 40 +17 +17 1017.3 996.3
21 18.05 штиль 0 н/о н/о +14.4 +4.1 50 +14 +14 1017.3 996.3
22 18.05 штиль 0 н/о н/о +13.3 +4.5 55 +13 +13 1017.8 996.8
00 19.05 штиль 0 н/о н/о +20.2 +3.0 32 +20 +20 1019.1 998.0
01 19.05 В 4 н/о н/о +22.6 +1.0 24 +22 +22 комфорт 1019.5 998.4 +12.3
03 19.05 ЮВ 3 н/о н/о +27.2 +1.6 19 +25 +25 комфорт 1018.4 997.3
04 19.05 ЮВ 3 н/о н/о +29.2 +0.8 16 +27 +27 жарко 1017.2 996.2
06 19.05 В 2 н/о н/о +31.4 -1.4 12 +28 +28 жарко 1015.2 994.2
07 19.05 В 1 н/о н/о +32.1 -2.0 11 +29 +29 жарко 1015.1 994.1
09 19.05 В 1 н/о н/о +30.2 -0.2 14 +27 +27 жарко 1015.3 994.3
10 19.05 В 1 н/о н/о +25.6 +2.9 23 +24 +24 комфорт 1015.9 994.9
12 19.05 ЮВ 2 н/о н/о +22.0 +3.2 29 +22 +22 комфорт 1016.8 995.8
13 19.05 ЮВ 1 н/о н/о +21.8 +2.0 27 +22 +22 комфорт 1017.1 996.1 +32.5
15 19.05 штиль 0 н/о н/о +16.4 +4.1 44 +16 +16 1017.3 996.3
16 19.05 штиль 0 н/о н/о +15.6 +4.9 49 +16 +16 1017.3 996.3
18 19.05 З 1 н/о н/о +14.5 +4.8 52 +16 +16 1017.2 996.2
19 19.05 штиль 0 н/о н/о +14.3 +4.6 52 +14 +14 1016.9 995.9
21 19.05 штиль 0 н/о н/о +13.2 +4.6 56 +13 +13 1016.9 995.9
22 19.05 ЮЗ 1 н/о н/о +13.3 +4.2 54 +14 +14 1017.5 996.5
00 20.05 штиль 0 н/о н/о +20.6 +3.3 32 +21 +21 комфорт 1018.8 997.7
01 20.05 ЮВ 3 н/о н/о +25.6 -2.9 15 +23 +23 комфорт 1019.3 998.2 +12.2
03 20.05 ЮВ 3 н/о н/о +30.7 -5.8 9 +27 +27 жарко 1018.4 997.3
04 20.05 В 3 н/о н/о +31.7 -6.6 8 +28 +28 жарко 1017.5 996.5
06 20.05 ЮВ 2 н/о н/о +32.9 -5.7 8 +29 +29 жарко 1016.0 995.0
07 20.05 СВ 1 н/о н/о +34.1 -4.8 8 +30 +30 жарко 1015.8 994.8
09 20.05 штиль 0 н/о н/о +31.6 -5.1 9 +28 +28 жарко 1016.0 995.0
10 20.05 штиль 0 н/о н/о +25.0 +3.6 25 +24 +24 комфорт 1016.1 995.1
12 20.05 штиль 0 н/о н/о +20.3 +3.9 34 +21 +21 комфорт 1017.1 996.1
13 20.05 Ю 1 н/о н/о +18.9 +4.3 38 +20 +20 1017.3 996.3 +34.4
15 20.05 Ю 2 н/о н/о +17.9 +4.5 41 +19 +19 1017.1 996.1
16 20.05 ЮЗ 1 н/о н/о +18.5 +2.8 35 +20 +20 1016.9 995.9
18 20.05 ЮЗ 2 н/о н/о +16.2 +2.6 40 +16 +16 1016.7 995.7
19 20.05 Ю 1 н/о н/о +15.9 +3.0 42 +17 +17 1016.4 995.4
21 20.05 ЮЗ 3 н/о н/о +17.1 +1.5 35 +17 +17 1017.1 996.1
22 20.05 В 1 н/о н/о +16.7 +1.2 35 +18 +18 1017.4 996.4
00 21.05 Ю 1 н/о н/о +22.4 +3.0 28 +22 +22 комфорт 1018.3 997.2
01 21.05 ЮЗ 2 н/о н/о +27.0 +0.7 18 +25 +25 комфорт 1018.7 997.6 +14.8
03 21.05 В 3 н/о н/о +31.9 -3.5 10 +28 +28 жарко 1017.8 996.8
04 21.05 В 4 н/о н/о +33.1 -4.0 9 +29 +29 жарко 1017.1 996.1
06 21.05 В 3 н/о н/о +34.6 -6.2 7 +30 +30 жарко 1015.7 994.7
07 21.05 В 3 н/о н/о +34.5 -4.5 8 +30 +30 жарко 1015.4 994.4
09 21.05 ЮВ 1 н/о н/о +31.9 +0.1 13 +29 +29 жарко 1015.9 994.9
10 21.05 штиль 0 н/о н/о +27.1 +3.6 22 +26 +26 жарко 1016.4 995.4
12 21.05 штиль 0 н/о н/о +23.1 +5.5 32 +23 +23 комфорт 1017.3 996.3
13 21.05 Ю 1 н/о н/о +22.1 +4.2 31 +22 +22 комфорт 1017.6 996.6 +35.2
15 21.05 Ю 1 н/о н/о +20.4 +4.0 34 +22 +22 комфорт 1017.6 996.6
16 21.05 Ю 1 н/о н/о +20.1 +3.3 33 +22 +22 комфорт 1017.7 996.7
18 21.05 Ю 1 н/о н/о +18.8 +3.4 36 +20 +20 1017.3 996.3
19 21.05 штиль 0 н/о н/о +19.2 +3.0 34 +19 +19 1017.0 996.0
21 21.05 Ю 1 н/о н/о +17.5 +3.4 39 +19 +19 1017.4 996.4
22 21.05 ЮЗ 1 н/о н/о +16.4 +3.8 43 +18 +18 1017.9 996.9
00 22.05 штиль 0 н/о н/о +24.3 +2.5 24 +23 +23 комфорт 1019.3 998.2
01 22.05 ЮВ 2 н/о н/о +27.8 -0.3 16 +25 +25 комфорт 1019.8 998.7 +15.5
03 22.05 В 4 н/о н/о +33.9 -2.0 10 +30 +30 жарко 1018.7 997.6
04 22.05 В 6 н/о н/о +34.5 -1.5 10 +31 +31 жарко 1017.6 996.6
06 22.05 В 3 н/о н/о +35.3 +0.4 11 +32 +32 жарко 1015.8 994.8
07 22.05 ЮВ 4 н/о н/о +34.7 +1.1 12 +31 +31 жарко 1015.5 994.5
09 22.05 ЮВ 2 н/о н/о +32.6 +2.6 15 +30 +30 жарко 1015.7 994.7
10 22.05 Ю 1 н/о н/о +28.0 +7.3 27 +27 +27 жарко 1016.2 995.2
12 22.05 штиль 0 н/о н/о +24.2 +6.9 33 +24 +24 комфорт 1017.1 996.1
13 22.05 штиль 0 н/о н/о +23.2 +6.5 34 +24 +24 комфорт 1017.5 996.5 +35.7
15 22.05 ЮЗ 2 н/о н/о +23.2 +5.6 32 +24 +24 комфорт 1017.6 996.6
16 22.05 ЮЗ 1 н/о н/о +23.1 +5.1 31 +23 +23 комфорт 1017.5 996.5
18 22.05 штиль 0 н/о н/о +22.8 +5.3 32 +23 +23 комфорт 1017.5 996.5
19 22.05 Ю 1 н/о н/о +22.3 +5.7 34 +23 +23 комфорт 1017.2 996.2
21 22.05 Ю 1 н/о н/о +21.0 +6.5 39 +23 +23 комфорт 1017.4 996.4
22 22.05 ЮЗ 2 н/о н/о +21.8 +6.1 36 +22 +22 комфорт 1018.5 997.4
00 23.05 Ю 2 н/о н/о +24.6 +9.7 39 +25 +25 комфорт 1019.8 998.7
01 23.05 ЮВ 5 н/о н/о +29.2 +8.8 28 +29 +29 жарко 1020.2 999.1 +20.9
03 23.05 СВ 5 н/о н/о +32.1 +6.3 20 +30 +30 жарко 1019.5 998.4
04 23.05 СВ 4 н/о н/о +33.4 +5.9 18 +31 +31 жарко 1018.7 997.6
06 23.05 С 3 н/о н/о +34.6 +6.0 17 +32 +32 жарко 1016.8 995.8
07 23.05 В 2 н/о н/о +34.6 +6.0 17 +32 +32 жарко 1016.5 995.5
09 23.05 ЮВ 2 н/о н/о +32.6 +6.7 20 +31 +31 жарко 1016.6 995.6
10 23.05 ЮВ 1 н/о н/о +28.7 +8.4 28 +28 +28 жарко 1017.0 996.0
12 23.05 З 1 н/о н/о +25.7 +8.7 34 +26 +26 жарко 1018.1 997.1

 

Местоположение метеостанции Марбл-бар (Западная Австралия, Австралия): широта -21.18 долгота 119.75 высота над уровнем моря 183 м.

В архиве по умолчанию представлена погода в Марбл-баре за последнюю неделю. Архивные данные за месяц целиком и за предыдущие месяцы, начиная с января 2011 года, Вы можете получить, выбрав интересующий диапазон дат из раскрывающегося списка и нажав кнопку "Ввод!".


*Определитесь, кто Вы:
робот инопланетянин человек

Внимание! Время в таблицах - всемирное. Для получения местного времени необходимо прибавить поправку, которая равна 8 ч.

Смотрите также архив погоды в соседних городах и на ближайших метеорологических станциях:

Погода в Порт-Хедленде Apardoo (Западная Австралия, Австралия) (148 км)
Погода в Мандоре (Западная Австралия, Австралия) (198 км)
Погода в Ньюмане (Западная Австралия, Австралия) (248 км)
Погода в Телфере (Западная Австралия, Австралия) (261 км)
Погода в Роборн аэропорту (Западная Австралия, Австралия) (274 км)
Погода в Параберду (Западная Австралия, Австралия) (302 км)
Погода в Каррате (Западная Австралия, Австралия) (314 км)
Погода в Марди (Западная Австралия, Австралия) (392 км)
Погода в Роули Шоалс (Западная Австралия, Австралия) (415 км)
Погода на Острове Варанас (Западная Австралия, Австралия) (438 км)

Пояснения к столбцам:

Ветер - указаны скорость ветра в м/с - средняя за 10 мин, порывы в срок и между сроками (в фигурных скобках) и направление, откуда дует ветер: С - северный, СВ - северо-восточный, В - восточный, ЮВ - юго-восточный, Ю - южный, ЮЗ - юго-западный, З - западный, СЗ - северо-западный.
Видимость - горизонтальная дальность видимости в метрах или километрах. При видимости от 1 до 10 км при отсутствии осадков обычно наблюдается дымка, при ухудшении видимости до 1 км и менее - туман. В сухую погоду видимость может ухудшаться дымом, пылью или мглою.
Явления - указаны атмосферные явления, наблюдавшиеся в срок или в последний час перед сроком; фигурными скобками обозначены явления, наблюдавшиеся между сроками (за 1-3 часа до срока); квадратными скобками обозначены град или гололедные отложения с указанием их диаметра в мм.
Облачность - указаны через наклонную черту общая и нижняя облачность в баллах и высота нижней границы облаков в метрах; квадратными скобками обозначены формы облаков: Ci - перистые, Cs - перисто-слоистые, Cc - перисто-кучевые, Ac - высококучевые, As - высокослоистые, Sc - слоисто-кучевые, Ns - слоисто-дождевые, Cu - кучевые, Cb - кучево-дождевые. Подробнее классификацию облаков см. в Атласе облаков (PDF).
T - Температура воздуха - температура, измеренная на высоте 2 м над землей.
Td - Температура точки росы - температура, при понижении до которой содержащийся в воздухе водяной пар достигнет насыщения.
f - Относительная влажность воздуха - влажноcть воздуха, измеренная на высоте 2 м над землей.
Te - Эффективная температура - температура, которую ощущает одетый по сезону человек в тени. Характеристика душности погоды. При расчете учитывается влияние влажности воздуха и скорости ветра на теплоощущения человека.
Tes - Эффективная температура на солнце - температура, которую ощущает человек, с поправкой на солнечный нагрев. Характеристика знойности погоды. Зависит от высоты солнца над горизонтом, облачности и скорости ветра. Ночью, в пасмурную погоду, а также при ветре 12 м/с и более поправка равна нулю.
P - Атмосферное давление - приведенное к уровню моря атмосферное давление.
Po - Атмосферное давление - измеренное на уровне метеостанции атмосферное давление.
Tmin - Минимальная температура - минимум температуры воздуха на высоте 2 м над землей.
Tmax - Максимальная температура - максимум температуры воздуха на высоте 2 м над землей.
R - Количество осадков - Количество выпавших осадков за период времени, мм. При наведении курсора мыши на число - период времени, за который выпало указанное количество осадков.
R24 - Количество осадков - Количество выпавших осадков за 24 часа, мм.
S - Снежный покров - Высота снежного покрова, см. При наведении курсора мыши на число - состояние снежного покрова и степень покрытия местности в баллах.